Location: Bagnolo San Vito
(45.0833°N, 10.8833°E)
Time: 23:44:39
(UTC+00:00)

Cosmos 2154 Rocket - Pass Details

Date: 03 March 2021
Orbit: 966 x 996 km, 82.9° (Epoch: 17 April)

Event Time Altitude Azimuth Distance (km) Brightness Sun altitude
Rises 17:33:18 0° 169° (S) 3,657 6.9 -5.5°
Reaches altitude 10° 17:35:53 10° 164° (SSE) 2,710 6.2 -6.0°
Maximum altitude 17:41:49 50° 91° (E) 1,219 4.2 -7.0°
Drops below altitude 10° 17:47:46 10° 18° (NNE) 2,717 6.2 -8.1°
Sets 17:50:20 0° 13° (NNE) 3,668 6.9 -8.5°
